KN4QD-13 Weather Reports


time (UTC)temp
C
wind
direction
speed
KPH
gust
KPH
rain 1hr
cm
rain 24hr
cm
rain mn
cm
humidity
%
barometer
mb
20260504040216 7 0.0 0.0 0.00 0.00 0.00 64 1017.5
20260504035236 8 0.0 0.0 0.00 0.00 0.00 62 1017.2
20260504034216 8 0.0 0.0 0.00 0.00 0.00 64 1017.2
20260504033216 8 0.0 0.0 0.00 0.00 0.00 64 1017.1
20260504032216 8 0.0 0.0 0.00 0.00 0.00 59 1017.1
20260504031216 8 0.0 0.0 0.00 0.00 0.00 60 1017.0
20260504030216 8 0.0 0.0 0.00 0.00 0.00 60 1017.0
20260504025216 8 0.0 0.0 0.00 0.00 0.00 60 1016.9
20260504024216 8 0.0 0.0 0.00 0.00 0.00 58 1017.2
20260504023216 8 0.0 0.0 0.00 0.00 0.00 60 1017.0
20260504022216 8 0.0 0.0 0.00 0.00 0.00 59 1016.6
20260504021216 9 0.0 0.0 0.00 0.00 0.00 59 1016.8
20260504020236 9 0.0 0.0 0.00 0.00 0.00 57 1016.7
20260504015216 9 0.0 0.0 0.00 0.00 0.00 57 1016.4
20260504014216 10 0.0 0.0 0.00 0.00 0.00 55 1016.4
20260504013216 10 0.0 0.0 0.00 0.00 0.00 55 1016.3
20260504012256 10 0.0 0.0 0.00 0.00 0.00 53 1016.1
20260504011216 10 0.0 0.0 0.00 0.00 0.00 53 1016.1
20260504010216 10 0.0 0.0 0.00 0.00 0.00 55 1016.0
20260504005216 10 0.0 0.0 0.00 0.00 0.00 57 1015.4
20260504004216 11 0.0 0.0 0.00 0.00 0.00 58 1015.6
20260504003236 11 0.0 0.0 0.00 0.00 0.00 56 1015.6
20260504002216 11 0.0 0.0 0.00 0.00 0.00 55 1015.3
20260504001256 11 0.0 0.0 0.00 0.00 0.00 51 1015.5
20260504000216 11 0.0 0.0 0.00 0.00 0.00 53 1015.4
20260503235216 12 0.0 0.0 0.00 0.00 0.00 52 1015.4
20260503234216 12 0.0 0.0 0.00 0.00 0.00 47 1015.4
20260503233216 12 0.0 0.0 0.00 0.00 0.00 48 1015.3
20260503232236 12 0.0 0.0 0.00 0.00 0.00 48 1015.3
20260503231216 12 0.0 0.0 0.00 0.00 0.00 47 1015.2
20260503230216 12 0.0 0.0 0.00 0.00 0.00 44 1015.2
20260503225216 12 0.0 0.0 0.00 0.00 0.00 45 1015.2
20260503224216 12 0.0 0.0 0.00 0.00 0.00 42 1015.2
20260503223216 13 0.0 0.0 0.00 0.00 0.00 42 1015.5
20260503222216 13 0.0 0.0 0.00 0.00 0.00 43 1015.5
20260503221236 13 0.0 0.0 0.00 0.00 0.00 43 1015.5
20260503220216 13 0.0 0.0 0.00 0.00 0.00 42 1015.7
20260503215216 13 0.0 1.6 0.00 0.00 0.00 41 1015.9
20260503214216 13 0.0 0.0 0.00 0.00 0.00 42 1016.0
20260503213216 14 0.0 1.6 0.00 0.00 0.00 40 1016.1
20260503212216 14 0.0 0.0 0.00 0.00 0.00 39 1016.1
20260503211216 14 0.0 0.0 0.00 0.00 0.00 39 1016.2
20260503210216 15 0.0 1.6 0.00 0.00 0.00 40 1016.5
20260503205216 15 338 1.6 1.6 0.00 0.00 0.00 35 1016.6
20260503204216 15 0.0 1.6 0.00 0.00 0.00 35 1017.0
20260503203216 15 0.0 0.0 0.00 0.00 0.00 33 1016.9
20260503202216 15 0.0 1.6 0.00 0.00 0.00 33 1017.1
20260503201216 15 135 1.6 4.8 0.00 0.00 0.00 31 1017.1
20260503200236 15 0.0 3.2 0.00 0.00 0.00 31 1017.4
20260503195216 15 0.0 0.0 0.00 0.00 0.00 32 1017.5
20260503194215 15 0.0 1.6 0.00 0.00 0.00 30 1017.5
20260503193236 15 90 1.6 3.2 0.00 0.00 0.00 30 1017.7
20260503192215 15 0.0 0.0 0.00 0.00 0.00 32 1017.9
20260503191215 15 90 3.2 4.8 0.00 0.00 0.00 29 1018.0
20260503190215 15 0.0 1.6 0.00 0.00 0.00 28 1018.1
20260503185215 16 68 1.6 4.8 0.00 0.00 0.00 28 1018.2
20260503184215 16 0.0 1.6 0.00 0.00 0.00 28 1018.5
20260503183215 16 90 1.6 3.2 0.00 0.00 0.00 28 1018.4
20260503182235 16 68 1.6 3.2 0.00 0.00 0.00 30 1018.8
20260503181215 17 113 1.6 3.2 0.00 0.00 0.00 30 1018.8
20260503180235 16 0.0 1.6 0.00 0.00 0.00 34 1018.8
20260503175215 17 0.0 1.6 0.00 0.00 0.00 33 1018.8
20260503174215 16 158 1.6 3.2 0.00 0.00 0.00 38 1018.7
20260503173215 15 0.0 3.2 0.00 0.00 0.00 41 1018.8
20260503172215 15 0.0 0.0 0.00 0.00 0.00 39 1019.1
20260503171235 15 0.0 0.0 0.00 0.00 0.00 38 1019.2
20260503170215 15 135 1.6 4.8 0.00 0.00 0.00 41 1019.0
20260503150215 8 90 3.2 6.4 0.00 0.00 0.00 61 1018.6
20260503140215 6 113 1.6 4.8 0.00 0.00 0.00 65 1018.0
20260503131217 5 0.0 0.0 0.00 0.00 0.00 72 1017.7
20260503130217 5 0.0 1.6 0.00 0.00 0.00 75 1017.7
20260503110217 2 0.0 0.0 0.00 0.00 0.00 86 1016.6
20260503100237 2 0.0 0.0 0.00 0.00 0.00 84 1015.9
20260503090217 2 0.0 0.0 0.00 0.00 0.00 81 1015.8
20260503081217 3 0.0 0.0 0.00 0.00 0.00 80 1016.0
20260503080217 3 0.0 0.0 0.00 0.00 0.00 80 1016.0
20260503072217 3 0.0 0.0 0.00 0.00 0.00 79 1015.6
20260503071217 3 0.0 0.0 0.00 0.00 0.00 79 1015.5
20260503070216 3 0.0 0.0 0.00 0.00 0.00 80 1015.5
20260503060216 4 0.0 0.0 0.00 0.00 0.00 77 1014.8
20260503054216 4 0.0 0.0 0.00 0.00 0.00 76 1015.2
20260503053216 4 0.0 0.0 0.00 0.00 0.00 76 1015.3
20260503052216 4 0.0 0.0 0.00 0.00 0.00 75 1015.3
20260503051216 4 0.0 0.0 0.00 0.00 0.00 75 1015.2
20260503050216 4 0.0 0.0 0.00 0.00 0.00 75 1015.3
20260503045216 4 0.0 0.0 0.00 0.00 0.00 75 1015.2
20260503044216 4 0.0 0.0 0.00 0.00 0.00 74 1015.1
20260503043216 4 0.0 0.0 0.00 0.00 0.00 75 1015.1
20260503042216 4 0.0 0.0 0.00 0.00 0.00 74 1014.7
20260503041216 4 0.0 0.0 0.00 0.00 0.00 74 1014.7